Wind_Speed
67 69 67 70 63 59 60 60 55 56 48 43 41 39 34 33 33 36 34 38 38 36 34 37 38 38 38 37 35 34 33 32 31 30 26 21 22 27 28 30 30 32 31 32 33 33 36 37 38
74 73 72 69 72 64 65 62 57 60 59 50 46 45 41 37 37 37 38 40 40 39 32 34 42 41 40 41 40 39 38 37 34 33 31 26 24 26 30 32 33 34 36 33 34 35 37 40 41
81 77 77 75 73 63 67 65 67 63 61 57 53 48 49 44 40 38 38 43 45 46 45 40 41 44 43 42 43 42 41 40 39 37 34 30 27 28 30 33 35 35 36 34 36 37 39 40 43
87 83 83 81 75 69 69 67 67 68 66 64 59 60 53 52 47 46 40 45 48 48 49 47 43 45 47 46 45 44 44 44 44 40 39 39 34 33 34 34 35 36 35 34 37 38 40 41 45
94 90 86 86 75 69 73 69 71 73 74 69 66 63 57 54 53 53 49 48 52 52 51 49 48 48 49 49 48 46 48 49 47 45 44 43 39 37 37 37 37 36 35 37 37 41 42 45 47
97 92 89 82 77 74 75 74 70 75 77 74 72 68 59 54 57 58 60 54 55 55 53 52 51 52 53 51 52 51 52 53 53 52 49 45 45 45 42 41 40 39 40 39 38 41 42 46 48
99 104 96 86 81 79 82 81 78 78 78 82 79 77 70 64 61 64 64 65 61 60 60 56 56 56 55 54 55 56 57 57 56 55 54 50 49 48 46 43 42 42 41 43 43 43 45 47 49
97 98 94 89 87 87 93 89 86 86 85 88 84 82 75 75 75 68 67 69 68 67 64 65 60 59 58 57 60 60 59 57 54 53 54 52 50 47 46 45 43 43 45 48 46 44 47 49 51
101 94 91 92 94 94 100 95 94 93 91 87 85 87 86 88 79 77 71 72 72 72 72 69 65 65 66 61 61 61 60 60 58 55 52 50 46 45 43 45 46 47 48 49 49 48 48 51 53
110 102 102 100 100 96 105 101 99 100 97 91 89 91 91 87 87 79 72 75 74 77 79 74 74 70 71 67 64 65 63 63 63 61 59 56 52 49 48 48 50 52 52 52 52 52 52 54 54
123 109 108 114 106 109 107 106 112 103 93 106 94 93 94 93 91 87 82 73 80 83 84 82 81 78 74 72 71 69 69 67 66 67 65 62 60 57 55 54 55 57 58 57 58 57 57 55 57
119 122 115 124 112 115 115 118 111 111 101 105 94 97 96 93 90 92 89 82 76 81 84 84 81 80 78 79 78 75 72 72 71 69 66 66 65 65 62 59 59 61 62 62 62 62 63 58 52
109 114 116 116 123 116 121 116 125 121 110 110 106 102 99 98 94 94 94 99 93 89 93 89 87 87 84 82 82 82 79 78 76 73 73 73 71 69 67 63 61 66 67 63 67 66 61 55 50
106 110 115 112 116 119 117 103 112 110 115 116 115 118 114 104 104 104 100 99 96 91 97 99 94 91 90 89 86 83 84 83 82 79 77 76 77 75 73 71 69 68 66 63 65 63 62 50 56
95 96 98 98 104 108 111 111 108 107 114 117 117 115 120 115 111 103 109 102 97 104 106 98 103 97 93 93 91 87 88 86 81 79 79 81 77 78 76 72 72 67 58 58 59 59 61 57 54
86 87 89 93 98 100 106 97 102 108 112 118 124 120 118 123 118 108 108 109 108 108 108 104 102 100 100 98 95 90 89 86 83 82 83 82 80 80 79 79 75 64 61 67 63 60 61 60 59
88 86 85 88 97 103 105 95 99 107 111 113 112 109 111 114 121 122 120 117 114 108 105 107 107 106 105 106 100 99 93 90 88 87 86 86 80 79 76 74 74 75 71 69 69 66 61 61 58
90 87 87 86 92 97 98 93 99 107 112 109 107 103 101 97 92 94 98 102 106 118 120 109 110 107 108 111 106 100 96 92 93 85 89 84 91 87 81 77 74 74 74 78 77 67 67 64 67
89 89 89 93 96 101 94 90 94 102 107 105 106 105 105 101 95 94 95 101 105 106 104 102 106 108 108 108 108 113 111 104 100 100 93 79 76 90 92 88 81 73 66 67 67 68 70 62 63
54 71 80 94 99 102 103 96 95 100 104 101 101 104 105 104 101 98 97 97 96 98 98 99 101 103 105 104 105 105 102 102 97 91 88 97 93 75 75 90 89 81 71 69 67 60 63 71 73
40 44 54 67 82 94 104 106 102 103 105 103 102 104 106 106 106 103 102 99 98 94 93 95 97 99 101 100 100 101 100 96 94 94 93 98 91 91 92 83 85 87 88 85 87 85 80 80 80
42 49 52 57 69 76 94 107 108 108 113 110 106 106 105 105 105 104 103 103 102 99 97 96 97 97 99 99 98 95 97 99 95 93 95 97 95 93 87 90 82 83 89 87 81 70 74 73 70
38 48 52 59 71 81 85 97 86 106 114 112 111 112 110 108 106 105 107 105 102 102 97 96 96 95 96 95 96 99 100 98 96 97 94 88 98 105 94 88 88 80 76 72 74 79 76 67 63
41 44 52 59 68 78 75 87 76 88 99 111 116 119 117 115 113 114 112 103 98 99 98 98 98 96 98 100 98 96 94 94 96 95 97 98 90 86 90 84 76 79 78 78 73 78 77 66 58
54 50 56 54 60 64 67 72 64 78 87 94 109 116 114 115 116 116 112 105 101 102 101 101 102 100 102 102 99 98 96 93 92 94 93 93 94 93 92 88 86 75 84 86 86 81 79 64 60
58 59 63 45 47 49 57 54 53 69 81 86 90 94 103 111 114 115 113 110 110 109 107 106 103 100 100 102 101 97 94 94 94 94 93 90 90 92 94 92 90 90 88 84 82 76 70 64 61
57 65 59 47 40 42 42 44 45 54 63 76 80 82 88 99 109 114 116 116 113 111 109 107 106 105 104 104 102 98 97 97 95 95 93 90 90 90 90 92 93 94 92 87 88 82 77 74 73
64 63 51 45 42 42 38 48 49 56 59 62 69 76 78 87 96 103 110 112 111 110 109 106 106 106 105 105 105 101 98 98 96 94 93 91 91 90 90 89 89 91 92 91 92 81 73 69 73
68 64 50 44 43 43 34 44 52 60 60 63 65 68 74 77 83 91 97 101 103 103 99 95 99 102 102 104 105 104 101 100 99 99 97 96 93 91 90 89 88 87 87 87 86 81 76 75 76
72 60 49 46 43 44 35 35 51 58 58 58 61 63 67 76 72 78 87 91 95 96 96 98 98 96 99 100 102 103 102 100 99 99 98 98 96 95 94 92 90 88 86 84 80 79 77 77 81
Wind_Direction
228 233 235 240 245 251 253 252 254 247 245 244 239 239 234 229 230 230 228 223 214 215 223 226 226 226 228 232 227 235 241 247 252 259 263 270 279 287 291 294 299 304 306 305 304 308 312 319 327
230 233 234 241 250 250 254 253 252 253 251 238 238 234 232 234 231 231 232 226 228 225 228 236 231 230 229 233 234 234 239 246 255 259 263 268 275 279 284 289 295 300 305 307 307 312 316 321 325
233 236 229 239 251 248 241 244 252 250 254 243 236 235 232 228 235 230 235 232 230 236 236 236 235 233 234 234 237 239 242 246 253 260 263 268 278 282 281 285 289 295 301 306 307 314 316 322 323
234 235 234 236 250 251 239 245 251 251 249 251 241 240 234 229 230 234 230 239 235 237 239 242 239 239 236 238 240 243 247 250 253 261 266 270 274 281 278 278 285 291 297 301 306 309 313 319 322
234 237 238 237 248 244 244 242 244 244 244 248 252 242 236 235 236 235 231 235 241 238 239 242 244 242 244 243 244 246 249 252 254 259 265 271 273 279 278 277 282 287 290 295 301 304 310 314 318
237 238 239 245 244 242 243 242 241 240 244 247 246 240 238 239 243 242 236 231 237 241 241 243 243 246 247 248 249 249 250 253 256 259 263 268 268 277 280 277 280 283 290 291 297 300 307 311 315
240 239 235 244 243 247 244 244 241 239 243 244 244 240 236 244 250 244 240 239 238 242 246 243 245 248 249 251 254 255 253 255 257 260 263 264 268 274 277 276 279 282 285 288 292 298 304 309 310
235 240 243 246 246 245 245 246 242 242 243 240 243 236 236 246 253 243 243 242 242 244 244 248 244 246 248 250 251 252 253 255 257 259 262 264 267 272 273 275 278 279 282 286 290 294 298 302 305
231 235 241 245 246 236 242 247 249 245 246 245 239 238 243 249 248 245 245 239 242 243 243 244 247 249 248 248 252 253 256 257 258 259 262 265 267 270 272 273 274 277 280 283 287 291 295 298 304
235 232 231 235 236 239 241 242 245 244 248 248 249 245 247 250 249 237 241 244 246 249 248 244 244 247 249 250 252 254 255 258 260 262 262 263 264 266 267 270 272 275 276 280 285 288 291 296 301
240 237 231 240 235 236 239 245 245 241 244 251 252 247 251 249 250 248 238 237 245 247 249 251 247 249 249 251 254 257 257 258 260 262 264 266 266 267 267 269 272 275 278 282 284 287 289 293 301
247 247 240 243 243 236 244 241 240 242 242 246 247 247 251 256 257 249 252 251 242 250 250 249 253 256 251 248 251 254 257 259 261 262 264 266 267 269 268 270 272 274 278 280 283 286 291 294 302
247 248 248 245 244 246 247 248 245 246 248 240 242 245 244 248 247 251 256 258 252 248 245 249 251 252 252 253 253 254 255 257 258 261 264 265 266 267 268 272 275 275 278 282 284 287 293 295 296
243 244 243 244 245 245 246 246 249 251 254 252 252 246 249 246 243 249 251 250 249 249 246 246 250 251 251 253 252 253 254 257 260 263 264 264 265 266 267 269 273 278 281 278 284 287 286 288 293
242 240 240 241 243 244 245 246 249 249 249 250 251 250 248 250 251 245 241 244 247 251 253 251 248 250 251 251 251 251 252 251 255 259 263 267 269 269 270 269 269 275 277 277 279 279 282 287 288
243 242 243 244 242 243 246 244 246 248 250 250 251 250 252 254 253 251 246 241 241 244 251 252 256 255 256 252 250 251 250 251 253 255 259 261 263 265 267 267 269 267 266 273 276 278 280 283 285
245 244 242 244 244 245 245 242 246 249 250 250 250 252 256 258 258 259 251 247 241 243 245 246 251 252 253 252 253 251 250 250 256 254 257 258 259 262 264 267 267 269 266 269 272 272 276 281 284
246 246 247 246 249 247 248 246 247 249 250 251 251 249 250 248 250 251 251 254 254 245 249 250 249 248 248 249 251 251 251 252 252 253 256 267 257 256 257 262 265 269 269 268 270 271 275 281 284
245 246 248 246 248 250 247 245 244 247 251 250 252 251 249 246 247 249 249 248 248 247 246 248 248 249 249 248 249 248 249 252 253 254 256 255 252 254 255 257 260 260 263 264 266 270 275 273 282
249 246 248 248 246 250 249 244 244 245 247 248 249 251 250 249 247 245 246 246 244 245 246 248 248 249 248 249 250 249 250 252 254 251 251 253 255 254 250 251 255 258 259 262 264 263 269 275 277
259 257 253 250 252 251 249 248 244 244 246 245 247 248 249 249 248 246 246 247 248 247 246 244 246 248 249 249 249 250 251 250 249 247 247 250 253 255 255 253 257 261 261 261 262 259 261 267 273
261 257 255 257 257 253 253 248 246 245 245 244 245 246 248 249 248 246 245 245 246 245 245 247 247 246 246 246 248 250 252 250 248 249 248 250 251 252 258 259 261 263 265 265 261 258 263 265 268
267 265 267 273 265 257 255 255 245 246 246 246 244 245 245 247 249 249 248 247 246 247 247 248 250 252 251 250 247 246 246 248 249 249 250 250 248 247 251 255 258 260 259 259 256 259 260 268 268
300 284 287 283 271 262 256 255 248 247 245 243 243 243 244 246 247 247 248 246 247 248 249 249 248 248 249 250 249 249 249 248 249 248 248 249 250 252 252 249 248 250 252 254 254 254 259 268 264
315 303 299 287 269 263 258 253 247 245 246 244 244 243 243 246 247 248 251 251 248 247 246 246 246 246 246 248 249 250 249 249 251 251 249 247 248 251 251 251 249 251 253 252 257 254 255 255 253
318 311 306 286 268 260 256 258 248 242 246 243 243 245 243 242 243 245 245 246 247 246 246 246 246 247 248 250 249 249 249 249 249 250 251 250 249 248 249 249 251 254 253 254 254 253 256 265 264
320 318 308 292 274 261 262 252 247 246 243 247 243 241 242 242 243 243 245 246 245 246 247 247 247 246 247 249 251 249 248 248 249 249 249 250 251 250 249 248 248 249 251 251 254 255 256 259 264
322 319 307 293 279 267 251 250 247 245 240 240 242 241 239 241 241 244 245 245 247 247 247 247 249 251 250 250 251 250 251 252 252 251 250 249 249 249 250 249 249 249 249 252 254 253 253 253 256
323 321 310 296 287 277 257 249 246 247 243 241 242 242 239 239 240 241 244 246 246 246 246 247 249 249 249 250 251 251 249 249 250 250 250 250 249 249 250 251 251 251 250 250 251 252 247 246 247
325 321 310 298 288 279 264 252 243 243 247 244 244 243 243 239 240 241 241 243 246 246 246 244 242 243 245 247 249 250 251 250 250 251 251 251 251 250 249 248 249 250 251 251 250 250 249 247 246
Height
10900 10904 10909 10914 10918 10918 10915 10921 10929 10934 10940 10945 10951 10956 10957 10954 10958 10958 10961 10960 10961 10963 10965 10967 10968 10968 10970 10973 10972 10973 10973 10973 10973 10972 10971 10972 10972 10971 10971 10970 10969 10968 10966 10964 10962 10961 10958 10956 10954
10889 10894 10900 10905 10910 10909 10906 10915 10922 10923 10931 10937 10942 10947 10952 10952 10953 10954 10955 10957 10958 10959 10961 10962 10964 10965 10965 10967 10968 10968 10969 10970 10970 10970 10970 10969 10969 10969 10968 10967 10966 10965 10962 10961 10959 10958 10956 10954 10951
10879 10883 10891 10897 10901 10898 10898 10904 10911 10914 10922 10927 10931 10936 10941 10946 10948 10949 10950 10950 10953 10954 10955 10956 10958 10960 10961 10961 10963 10965 10966 10966 10966 10967 10967 10967 10967 10967 10966 10965 10963 10961 10960 10958 10956 10955 10953 10951 10949
10866 10872 10880 10889 10891 10887 10888 10896 10898 10904 10910 10916 10922 10926 10932 10936 10941 10942 10945 10944 10947 10949 10950 10953 10954 10955 10956 10956 10958 10960 10961 10961 10961 10963 10964 10964 10964 10964 10962 10960 10960 10958 10957 10955 10953 10951 10949 10948 10946
10850 10859 10870 10879 10881 10877 10875 10883 10888 10891 10894 10904 10912 10918 10923 10930 10934 10935 10936 10938 10938 10941 10944 10947 10949 10950 10949 10952 10953 10954 10955 10955 10956 10957 10958 10960 10960 10959 10957 10956 10955 10955 10953 10951 10949 10947 10945 10943 10941
10839 10847 10861 10870 10869 10863 10864 10868 10878 10880 10879 10893 10899 10906 10913 10919 10925 10930 10928 10930 10931 10934 10937 10938 10941 10943 10945 10946 10946 10947 10948 10949 10950 10952 10952 10953 10953 10953 10953 10952 10951 10950 10948 10946 10946 10944 10942 10939 10936
10827 10834 10849 10856 10858 10854 10847 10852 10860 10867 10869 10871 10884 10896 10903 10907 10915 10920 10922 10921 10923 10925 10929 10932 10935 10936 10938 10939 10940 10939 10940 10940 10942 10944 10945 10946 10946 10947 10947 10946 10945 10945 10942 10941 10941 10940 10938 10936 10932
10810 10821 10836 10845 10846 10846 10823 10833 10845 10848 10853 10856 10870 10885 10892 10898 10905 10909 10911 10916 10915 10917 10919 10922 10925 10927 10930 10931 10931 10931 10932 10931 10933 10935 10937 10938 10939 10940 10941 10940 10939 10938 10936 10934 10934 10934 10933 10930 10928
10796 10816 10828 10829 10827 10821 10803 10820 10824 10833 10837 10841 10858 10872 10876 10882 10894 10899 10901 10903 10902 10904 10909 10911 10915 10917 10919 10921 10922 10921 10922 10924 10924 10926 10928 10931 10932 10932 10933 10933 10933 10931 10929 10928 10927 10928 10926 10923 10922
10781 10801 10806 10806 10806 10803 10788 10810 10800 10817 10821 10831 10844 10856 10858 10866 10879 10886 10890 10892 10894 10894 10898 10902 10904 10905 10909 10912 10914 10915 10914 10914 10915 10917 10920 10921 10923 10924 10924 10925 10925 10924 10922 10920 10920 10919 10919 10917 10916
10760 10783 10783 10785 10790 10791 10777 10797 10779 10805 10819 10814 10830 10834 10835 10850 10862 10873 10878 10881 10877 10878 10882 10886 10892 10895 10897 10901 10904 10906 10907 10907 10908 10910 10912 10914 10915 10916 10916 10917 10917 10916 10915 10914 10912 10911 10911 10911 10910
10744 10755 10767 10765 10769 10776 10769 10760 10774 10783 10809 10803 10809 10811 10819 10831 10842 10852 10860 10867 10872 10867 10866 10869 10873 10878 10885 10890 10893 10893 10896 10898 10900 10902 10904 10906 10906 10908 10908 10909 10908 10908 10907 10906 10904 10903 10903 10905 10903
10726 10731 10741 10747 10747 10751 10746 10748 10752 10767 10786 10782 10788 10790 10806 10808 10824 10832 10841 10851 10852 10854 10852 10849 10855 10861 10869 10875 10881 10882 10883 10887 10889 10892 10895 10896 10898 10899 10900 10901 10900 10899 10898 10899 10896 10896 10895 10897 10897
10704 10710 10718 10723 10722 10724 10726 10723 10718 10754 10745 10752 10762 10765 10779 10791 10803 10817 10825 10830 10831 10832 10837 10835 10837 10845 10855 10859 10864 10868 10871 10873 10878 10882 10882 10884 10888 10888 10890 10890 10890 10891 10890 10890 10887 10887 10888 10888 10888
10685 10694 10698 10705 10704 10703 10701 10711 10720 10710 10712 10727 10734 10737 10753 10769 10780 10792 10806 10810 10813 10814 10815 10824 10826 10829 10837 10840 10845 10851 10855 10862 10867 10869 10870 10872 10875 10874 10877 10879 10878 10881 10883 10879 10877 10877 10879 10880 10878
10667 10677 10682 10679 10680 10674 10668 10705 10699 10690 10686 10702 10715 10720 10726 10742 10758 10772 10780 10793 10800 10799 10798 10802 10807 10812 10817 10824 10828 10835 10841 10850 10854 10855 10857 10861 10862 10864 10864 10865 10867 10869 10872 10871 10868 10868 10869 10871 10870
10644 10651 10657 10654 10651 10648 10652 10688 10683 10670 10669 10682 10701 10713 10715 10722 10736 10749 10760 10764 10778 10782 10782 10786 10787 10792 10799 10801 10810 10817 10825 10833 10834 10839 10844 10848 10848 10850 10854 10855 10856 10858 10863 10861 10860 10857 10859 10860 10860
10628 10638 10642 10645 10628 10629 10643 10674 10666 10655 10650 10665 10677 10692 10697 10704 10711 10717 10730 10739 10745 10760 10765 10764 10766 10767 10775 10783 10791 10798 10808 10814 10817 10821 10831 10831 10835 10834 10838 10843 10846 10848 10852 10852 10851 10848 10849 10849 10849
10608 10616 10623 10620 10612 10608 10632 10648 10648 10638 10631 10651 10653 10661 10669 10677 10690 10696 10703 10710 10718 10727 10736 10738 10740 10748 10753 10762 10768 10777 10787 10793 10805 10805 10814 10810 10815 10818 10826 10831 10833 10836 10838 10838 10840 10839 10838 10838 10838
10592 10594 10598 10600 10589 10592 10600 10623 10624 10620 10617 10624 10631 10631 10643 10653 10664 10670 10675 10681 10690 10700 10712 10719 10722 10725 10731 10739 10748 10758 10764 10774 10789 10793 10792 10792 10797 10800 10808 10814 10817 10822 10823 10825 10825 10827 10826 10828 10829
10581 10582 10580 10579 10570 10577 10574 10585 10601 10600 10595 10604 10607 10606 10611 10623 10635 10646 10656 10662 10670 10680 10689 10695 10699 10705 10713 10721 10729 10736 10743 10756 10759 10772 10776 10776 10780 10783 10796 10798 10802 10802 10806 10811 10806 10812 10817 10816 10818
10571 10563 10564 10562 10554 10555 10538 10554 10569 10575 10568 10577 10586 10587 10589 10593 10603 10615 10628 10637 10646 10655 10663 10670 10677 10683 10691 10701 10708 10715 10722 10725 10735 10747 10757 10761 10770 10771 10772 10780 10785 10781 10781 10789 10791 10792 10799 10806 10804
10555 10549 10547 10540 10529 10522 10527 10513 10555 10541 10545 10556 10564 10559 10564 10570 10577 10588 10599 10617 10629 10634 10646 10654 10658 10663 10668 10678 10685 10690 10700 10705 10712 10724 10730 10739 10745 10751 10755 10762 10763 10764 10764 10771 10776 10778 10781 10790 10796
10537 10532 10524 10513 10499 10495 10495 10485 10524 10512 10513 10516 10524 10528 10539 10549 10557 10556 10567 10595 10610 10615 10624 10630 10637 10644 10643 10646 10656 10666 10677 10686 10692 10700 10711 10717 10722 10726 10736 10744 10746 10748 10749 10756 10762 10764 10769 10778 10783
10511 10506 10497 10485 10469 10470 10466 10461 10496 10491 10485 10494 10491 10502 10524 10530 10533 10539 10552 10574 10585 10589 10595 10599 10605 10616 10618 10622 10635 10645 10654 10664 10670 10675 10686 10696 10703 10707 10716 10722 10727 10731 10735 10741 10746 10752 10757 10764 10768
10495 10481 10467 10462 10451 10449 10447 10457 10464 10460 10459 10462 10471 10486 10500 10507 10510 10515 10524 10537 10546 10558 10565 10573 10585 10596 10600 10601 10610 10625 10636 10642 10649 10654 10661 10671 10680 10688 10694 10701 10708 10714 10718 10721 10727 10734 10742 10747 10751
10481 10464 10447 10437 10434 10430 10434 10436 10441 10438 10440 10440 10450 10464 10473 10481 10486 10492 10498 10509 10521 10531 10543 10553 10561 10569 10576 10579 10588 10601 10608 10614 10624 10633 10643 10652 10659 10666 10674 10680 10687 10692 10696 10702 10708 10718 10725 10730 10735
10454 10444 10430 10420 10418 10416 10422 10417 10419 10417 10417 10419 10422 10436 10450 10455 10464 10471 10476 10484 10497 10512 10523 10534 10539 10546 10553 10559 10566 10581 10590 10595 10604 10613 10621 10630 10636 10642 10650 10659 10667 10673 10680 10686 10694 10703 10708 10716 10719
10436 10424 10411 10403 10399 10396 10403 10403 10399 10396 10402 10405 10408 10418 10427 10436 10443 10450 10459 10467 10476 10487 10497 10507 10516 10523 10530 10534 10539 10550 10561 10569 10577 10586 10595 10603 10614 10623 10631 10638 10647 10655 10664 10670 10678 10687 10693 10702 10706
10421 10407 10395 10387 10383 10378 10382 10388 10380 10380 10386 10393 10395 10402 10409 10415 10428 10434 10440 10446 10453 10462 10471 10480 10486 10493 10500 10507 10513 10521 10532 10544 10553 10560 10569 10580 10590 10600 10609 10617 10627 10636 10643 10651 10661 10668 10676 10685 10692